Location: Prague
(50.0830°N, 14.4670°E)
Time: 08:27:31
(UTC+01:00)

XW-2F - Pass Details

Date: 30 November 2021
Orbit: 494 x 515 km, 97.5° (Epoch: 18 January)

Event Time Altitude Azimuth Distance (km) Brightness Sun altitude
Rises 16:46:28 0° 149° (SSE) 2,598 ? -6.8°
Reaches altitude 10° 16:48:35 10° 143° (SE) 1,722 ? -7.1°
Maximum altitude 16:52:08 44° 70° (ENE) 723 ? -7.6°
Drops below altitude 10° 16:55:43 10° 359° (N) 1,749 ? -8.2°
Sets 16:57:53 0° 352° (N) 2,645 ? -8.5°
